TimeCDT,TemperatureF,Dew PointF,Humidity,Sea Level PressureIn,VisibilityMPH,Wind Direction,Wind SpeedMPH,Gust SpeedMPH,PrecipitationIn,Events,Conditions,WindDirDegrees,DateUTC
12:53 AM,39.9,30.0,68,30.25,10.0,East,6.9,-,N/A,,Mostly Cloudy,80,2013-03-28 05:53:00
1:53 AM,39.0,28.9,67,30.24,10.0,East,6.9,-,N/A,,Scattered Clouds,100,2013-03-28 06:53:00
2:53 AM,37.0,28.9,73,30.23,10.0,East,6.9,-,N/A,,Scattered Clouds,80,2013-03-28 07:53:00
3:53 AM,37.9,28.9,70,30.22,10.0,East,9.2,-,N/A,,Scattered Clouds,90,2013-03-28 08:53:00
4:53 AM,37.9,28.0,68,30.21,10.0,East,10.4,-,N/A,,Scattered Clouds,90,2013-03-28 09:53:00
5:53 AM,37.9,28.9,70,30.22,10.0,East,6.9,-,N/A,,Mostly Cloudy,100,2013-03-28 10:53:00
6:53 AM,37.0,28.9,73,30.22,10.0,East,6.9,-,N/A,,Scattered Clouds,90,2013-03-28 11:53:00
7:53 AM,37.0,28.9,73,30.23,10.0,East,6.9,-,N/A,,Clear,90,2013-03-28 12:53:00
8:53 AM,39.9,30.9,70,30.24,10.0,East,9.2,-,N/A,,Clear,90,2013-03-28 13:53:00
9:53 AM,45.0,32.0,60,30.23,10.0,ESE,9.2,-,N/A,,Clear,110,2013-03-28 14:53:00
10:53 AM,48.9,34.0,56,30.23,10.0,ESE,6.9,-,N/A,,Partly Cloudy,110,2013-03-28 15:53:00
11:53 AM,52.0,35.1,53,30.22,10.0,East,5.8,-,N/A,,Scattered Clouds,100,2013-03-28 16:53:00
12:53 PM,55.0,35.1,47,30.20,10.0,East,8.1,-,N/A,,Partly Cloudy,100,2013-03-28 17:53:00
1:53 PM,57.0,36.0,45,30.20,10.0,Variable,3.5,-,N/A,,Scattered Clouds,0,2013-03-28 18:53:00
2:53 PM,57.9,36.0,44,30.17,10.0,ENE,6.9,-,N/A,,Scattered Clouds,70,2013-03-28 19:53:00
3:53 PM,60.1,36.0,41,30.16,10.0,Variable,5.8,-,N/A,,Scattered Clouds,0,2013-03-28 20:53:00
4:53 PM,60.1,37.0,42,30.15,10.0,Variable,4.6,-,N/A,,Mostly Cloudy,0,2013-03-28 21:53:00
5:53 PM,60.1,37.0,42,30.14,10.0,East,10.4,-,N/A,,Mostly Cloudy,90,2013-03-28 22:53:00
6:53 PM,59.0,37.9,46,30.14,10.0,East,8.1,-,N/A,,Mostly Cloudy,80,2013-03-28 23:53:00
7:53 PM,55.9,39.0,53,30.15,10.0,ENE,8.1,-,N/A,,Mostly Cloudy,60,2013-03-29 00:53:00
8:53 PM,54.0,39.0,57,30.17,10.0,ENE,8.1,-,N/A,,Mostly Cloudy,70,2013-03-29 01:53:00
9:53 PM,54.0,37.9,55,30.19,10.0,ENE,5.8,-,N/A,,Overcast,70,2013-03-29 02:53:00
10:53 PM,52.0,39.0,61,30.20,10.0,North,8.1,-,N/A,,Overcast,10,2013-03-29 03:53:00
11:53 PM,51.1,39.0,63,30.18,10.0,ENE,9.2,-,N/A,,Mostly Cloudy,60,2013-03-29 04:53:00